Simultaneous Nadir Overpasses (SNOs) Predictions

Prediction of SNOs between GOES-14 and NPP Satellite Orbit:

Table of predicted SNOs for the next 14.0 days since TLE Epoch: 1/7/2025
Index Date Time (GOES-14) GOES-14 Lat,Lon NPP Lat,Lon Distance(km) Time Diff (sec)
1 01/07/2025 20:55:46 -0.23,-108.21 -1.09,-112.16 450.52 80
2 01/08/2025 20:34:21 -0.22,-108.20 -0.12,-107.63 64.34 80
3 01/11/2025 08:40:06 0.24,-108.22 0.29,-108.37 16.99 80
4 01/12/2025 08:18:43 0.23,-108.21 -0.75,-103.84 497.58 80
5 01/13/2025 20:43:19 -0.26,-108.14 -0.49,-109.13 113.76 80
6 01/14/2025 20:21:55 -0.25,-108.13 0.55,-104.61 401.10 80
7 01/16/2025 08:46:24 0.28,-108.17 0.64,-109.88 194.34 80
8 01/17/2025 08:24:59 0.26,-108.16 -0.35,-105.34 320.73 80
9 01/18/2025 20:49:36 -0.29,-108.10 -0.87,-110.64 289.91 80
10 01/19/2025 20:28:12 -0.28,-108.09 0.19,-106.12 225.40 80
